424P/La Sagra (2021)

Japanese version
Home page
Updated on March 27, 2022

---------------------------------------------------------------------

* Profile

Designation 424P/2021 L5
Recovery Date June 6 and July 3, 2021
Magnitude 20.6 mag, 19.0 mag
Recoverer Pan-STARRS 1 telescope (Haleakala), Hidetaka Sato (Tokyo, Japan)

* Pictures

* Orbital Elements

Epoch 2022 Jan. 21.0 TT = JDT 2459600.5
T 2021 Oct. 31.63349 TT                                 Rudenko
q   1.3627086            (2000.0)            P               Q
n   0.10627915     Peri.  312.47474     +0.99137843     -0.05767592
a   4.4140508      Node    51.17801     +0.10762285     +0.87060139
e   0.6912793      Incl.    8.68560     -0.07474045     +0.48859667
P   9.27
From 619 observations 2012 Sept. 23-2022 Jan. 31, mean residual 0".5.

* Finding Charts

* Magnitudes Graph

        H - 16.0  G = 0.15

---------------------------------------------------------------------

The orbital elements are published on M.P.E.C. 2022-C56.
The charts are made with StellaNavigator Ver.10 (AstroArts).
The magnitudes graphs are made with Comet for Windows.

---------------------------------------------------------------------

Copyright(C) Seiichi Yoshida (comet@aerith.net). All rights reserved.